Time,TemperatureF,DewpointF,PressureIn,WindDirection,WindDirectionDegrees,WindSpeedMPH,WindSpeedGustMPH,Humidity,HourlyPrecipIn,Conditions,Clouds,dailyrainin,SoftwareType,DateUTC
2013-01-18 00:03:00,31.8,27.0,30.51,East,90,0.0,2.0,82,0.00,,,0.00,meteohub,2013-01-18 06:03:00,
2013-01-18 00:08:00,31.8,27.0,30.51,East,90,0.0,1.0,82,0.00,,,0.00,meteohub,2013-01-18 06:08:00,
2013-01-18 00:13:00,31.5,27.0,30.51,East,90,0.0,1.0,83,0.00,,,0.00,meteohub,2013-01-18 06:13:00,
2013-01-18 00:18:00,31.3,26.8,30.51,East,90,0.0,1.0,83,0.00,,,0.00,meteohub,2013-01-18 06:18:00,
2013-01-18 00:23:00,31.1,26.6,30.51,East,90,1.0,1.0,83,0.00,,,0.00,meteohub,2013-01-18 06:23:00,
2013-01-18 00:29:00,31.1,26.6,30.51,East,90,0.0,1.0,83,0.00,,,0.00,meteohub,2013-01-18 06:29:00,
2013-01-18 00:34:00,30.9,26.4,30.51,East,90,0.0,1.0,83,0.00,,,0.00,meteohub,2013-01-18 06:34:00,
2013-01-18 00:39:00,30.7,26.2,30.51,East,90,0.0,1.0,83,0.00,,,0.00,meteohub,2013-01-18 06:39:00,
2013-01-18 00:44:00,30.6,26.1,30.51,NE,45,2.0,2.0,83,0.00,,,0.00,meteohub,2013-01-18 06:44:00,
2013-01-18 00:49:00,30.4,26.1,30.50,NE,45,0.0,1.0,84,0.00,,,0.00,meteohub,2013-01-18 06:49:00,
2013-01-18 00:54:00,30.4,26.1,30.51,NE,45,0.0,2.0,84,0.00,,,0.00,meteohub,2013-01-18 06:54:00,
2013-01-18 00:59:00,30.2,25.9,30.50,NE,45,0.0,2.0,84,0.00,,,0.00,meteohub,2013-01-18 06:59:00,
2013-01-18 01:04:00,30.2,25.9,30.51,NE,45,1.0,2.0,84,0.00,,,0.00,meteohub,2013-01-18 07:04:00,
2013-01-18 01:09:00,30.2,25.9,30.51,NE,45,1.0,1.0,84,0.00,,,0.00,meteohub,2013-01-18 07:09:00,
2013-01-18 01:14:00,30.0,26.1,30.50,NE,45,1.0,1.0,85,0.00,,,0.00,meteohub,2013-01-18 07:14:00,
2013-01-18 01:19:00,29.8,25.9,30.51,NE,45,2.0,2.0,85,0.00,,,0.00,meteohub,2013-01-18 07:19:00,
2013-01-18 01:24:00,29.8,26.2,30.51,SW,225,1.0,2.0,86,0.00,,,0.00,meteohub,2013-01-18 07:24:00,
2013-01-18 01:29:00,29.8,26.2,30.51,SSW,203,0.0,2.0,86,0.00,,,0.00,meteohub,2013-01-18 07:29:00,
2013-01-18 01:34:00,29.8,26.2,30.51,NE,45,0.0,2.0,86,0.00,,,0.00,meteohub,2013-01-18 07:34:00,
2013-01-18 01:39:00,29.8,26.2,30.51,East,90,0.0,2.0,86,0.00,,,0.00,meteohub,2013-01-18 07:39:00,
2013-01-18 01:44:00,29.8,26.2,30.51,East,90,0.0,2.0,86,0.00,,,0.00,meteohub,2013-01-18 07:44:00,
2013-01-18 01:49:00,29.7,26.1,30.51,NE,45,1.0,2.0,86,0.00,,,0.00,meteohub,2013-01-18 07:49:00,
2013-01-18 01:54:00,30.0,26.6,30.51,NE,45,1.0,1.0,87,0.00,,,0.00,meteohub,2013-01-18 07:54:00,
2013-01-18 01:59:00,30.0,26.6,30.51,NE,45,2.0,2.0,87,0.00,,,0.00,meteohub,2013-01-18 07:59:00,
2013-01-18 02:04:00,29.8,26.4,30.51,NE,45,2.0,2.0,87,0.00,,,0.00,meteohub,2013-01-18 08:04:00,
2013-01-18 02:09:00,29.7,26.2,30.51,NE,45,0.0,2.0,87,0.00,,,0.00,meteohub,2013-01-18 08:09:00,
2013-01-18 02:15:00,29.5,26.1,30.51,SE,135,0.0,2.0,87,0.00,,,0.00,meteohub,2013-01-18 08:15:00,
2013-01-18 02:20:00,29.5,26.1,30.51,East,90,0.0,2.0,87,0.00,,,0.00,meteohub,2013-01-18 08:20:00,
2013-01-18 02:25:00,29.3,25.9,30.51,East,90,0.0,2.0,87,0.00,,,0.00,meteohub,2013-01-18 08:25:00,
2013-01-18 02:30:00,29.3,25.9,30.52,East,90,0.0,2.0,87,0.00,,,0.00,meteohub,2013-01-18 08:30:00,
2013-01-18 02:35:00,29.1,25.7,30.52,East,90,0.0,0.0,87,0.00,,,0.00,meteohub,2013-01-18 08:35:00,
2013-01-18 02:40:00,28.9,25.5,30.51,East,90,0.0,0.0,87,0.00,,,0.00,meteohub,2013-01-18 08:40:00,
2013-01-18 02:45:00,28.9,25.5,30.52,East,90,0.0,0.0,87,0.00,,,0.00,meteohub,2013-01-18 08:45:00,
2013-01-18 02:50:00,28.9,25.5,30.51,East,90,2.0,0.0,87,0.00,,,0.00,meteohub,2013-01-18 08:50:00,
2013-01-18 02:55:00,28.9,25.9,30.51,NE,45,2.0,2.0,88,0.00,,,0.00,meteohub,2013-01-18 08:55:00,
2013-01-18 03:00:00,28.9,25.9,30.51,NE,45,0.0,2.0,88,0.00,,,0.00,meteohub,2013-01-18 09:00:00,
2013-01-18 03:05:00,28.9,25.9,30.51,NE,45,0.0,2.0,88,0.00,,,0.00,meteohub,2013-01-18 09:05:00,
2013-01-18 03:10:00,28.6,25.5,30.51,NE,45,0.0,2.0,88,0.00,,,0.00,meteohub,2013-01-18 09:10:00,
2013-01-18 03:15:00,28.6,25.5,30.51,NE,45,0.0,0.0,88,0.00,,,0.00,meteohub,2013-01-18 09:15:00,
2013-01-18 03:20:00,28.4,25.3,30.51,NE,45,1.0,0.0,88,0.00,,,0.00,meteohub,2013-01-18 09:20:00,
2013-01-18 03:26:00,28.2,23.7,30.51,NW,315,1.0,2.0,83,0.00,,,0.00,meteohub,2013-01-18 09:26:00,
2013-01-18 03:31:00,28.0,23.5,30.51,NW,315,0.0,2.0,83,0.00,,,0.00,meteohub,2013-01-18 09:31:00,
2013-01-18 03:36:00,27.9,23.4,30.51,East,90,0.0,2.0,83,0.00,,,0.00,meteohub,2013-01-18 09:36:00,
2013-01-18 03:41:00,27.9,23.7,30.51,NE,45,0.0,2.0,84,0.00,,,0.00,meteohub,2013-01-18 09:41:00,
2013-01-18 03:46:00,27.9,23.7,30.51,NE,45,1.0,2.0,84,0.00,,,0.00,meteohub,2013-01-18 09:46:00,
2013-01-18 03:51:00,27.9,23.7,30.51,NE,45,0.0,2.0,84,0.00,,,0.00,meteohub,2013-01-18 09:51:00,
2013-01-18 03:56:00,27.9,23.7,30.51,NE,45,2.0,2.0,84,0.00,,,0.00,meteohub,2013-01-18 09:56:00,
2013-01-18 04:01:00,27.9,23.9,30.51,East,90,2.0,2.0,85,0.00,,,0.00,meteohub,2013-01-18 10:01:00,
2013-01-18 04:06:00,27.9,23.9,30.51,NE,45,1.0,2.0,85,0.00,,,0.00,meteohub,2013-01-18 10:06:00,
2013-01-18 04:11:00,27.7,23.7,30.51,South,180,0.0,2.0,85,0.00,,,0.00,meteohub,2013-01-18 10:11:00,
2013-01-18 04:16:00,27.7,23.7,30.51,NE,45,0.0,2.0,85,0.00,,,0.00,meteohub,2013-01-18 10:16:00,
2013-01-18 04:21:00,27.5,23.5,30.51,NE,45,1.0,2.0,85,0.00,,,0.00,meteohub,2013-01-18 10:21:00,
2013-01-18 04:26:00,27.5,23.5,30.51,NE,45,1.0,2.0,85,0.00,,,0.00,meteohub,2013-01-18 10:26:00,
2013-01-18 04:31:00,27.3,23.4,30.51,NE,45,0.0,2.0,85,0.00,,,0.00,meteohub,2013-01-18 10:31:00,
2013-01-18 04:36:00,27.1,23.2,30.51,NE,45,0.0,1.0,85,0.00,,,0.00,meteohub,2013-01-18 10:36:00,
2013-01-18 04:41:00,27.1,23.2,30.51,NE,45,0.0,1.0,85,0.00,,,0.00,meteohub,2013-01-18 10:41:00,
2013-01-18 04:46:00,27.0,23.0,30.51,NE,45,0.0,0.0,85,0.00,,,0.00,meteohub,2013-01-18 10:46:00,
2013-01-18 04:51:00,27.0,23.0,30.51,NE,45,0.0,0.0,85,0.00,,,0.00,meteohub,2013-01-18 10:51:00,
2013-01-18 04:56:00,27.0,23.0,30.50,NE,45,1.0,0.0,85,0.00,,,0.00,meteohub,2013-01-18 10:56:00,
2013-01-18 05:01:00,26.8,22.8,30.50,NE,45,0.0,1.0,85,0.00,,,0.00,meteohub,2013-01-18 11:01:00,
2013-01-18 05:06:00,26.8,22.8,30.51,NE,45,0.0,1.0,85,0.00,,,0.00,meteohub,2013-01-18 11:06:00,
2013-01-18 05:11:00,26.8,22.8,30.50,NE,45,0.0,1.0,85,0.00,,,0.00,meteohub,2013-01-18 11:11:00,
2013-01-18 05:16:00,26.6,22.6,30.50,NE,45,0.0,0.0,85,0.00,,,0.00,meteohub,2013-01-18 11:16:00,
2013-01-18 05:21:00,26.6,22.6,30.50,NE,45,0.0,0.0,85,0.00,,,0.00,meteohub,2013-01-18 11:21:00,
2013-01-18 05:26:00,26.6,22.6,30.50,NE,45,0.0,2.0,85,0.00,,,0.00,meteohub,2013-01-18 11:26:00,
2013-01-18 05:31:00,26.6,22.6,30.50,NE,45,0.0,2.0,85,0.00,,,0.00,meteohub,2013-01-18 11:31:00,
2013-01-18 05:36:00,26.4,22.8,30.50,NE,45,0.0,2.0,86,0.00,,,0.00,meteohub,2013-01-18 11:36:00,
2013-01-18 05:42:00,26.4,22.8,30.50,NE,45,0.0,1.0,86,0.00,,,0.00,meteohub,2013-01-18 11:42:00,
2013-01-18 05:47:00,26.2,22.6,30.50,NE,45,0.0,0.0,86,0.00,,,0.00,meteohub,2013-01-18 11:47:00,
2013-01-18 05:52:00,26.2,22.6,30.50,NE,45,0.0,0.0,86,0.00,,,0.00,meteohub,2013-01-18 11:52:00,
2013-01-18 05:57:00,26.2,22.6,30.50,NE,45,0.0,0.0,86,0.00,,,0.00,meteohub,2013-01-18 11:57:00,
2013-01-18 06:02:00,26.2,22.6,30.49,NE,45,0.0,0.0,86,0.00,,,0.00,meteohub,2013-01-18 12:02:00,
2013-01-18 06:07:00,26.1,22.5,30.50,NE,45,0.0,0.0,86,0.00,,,0.00,meteohub,2013-01-18 12:07:00,
2013-01-18 06:12:00,26.1,22.5,30.50,NE,45,0.0,0.0,86,0.00,,,0.00,meteohub,2013-01-18 12:12:00,
2013-01-18 06:17:00,26.1,22.5,30.50,NE,45,0.0,0.0,86,0.00,,,0.00,meteohub,2013-01-18 12:17:00,
2013-01-18 06:22:00,26.1,22.5,30.50,NE,45,0.0,0.0,86,0.00,,,0.00,meteohub,2013-01-18 12:22:00,
2013-01-18 06:27:00,25.9,22.3,30.50,South,180,0.0,0.0,86,0.00,,,0.00,meteohub,2013-01-18 12:27:00,
2013-01-18 06:32:00,25.7,22.1,30.51,South,180,0.0,0.0,86,0.00,,,0.00,meteohub,2013-01-18 12:32:00,
2013-01-18 06:37:00,25.7,22.1,30.50,NE,45,1.0,1.0,86,0.00,,,0.00,meteohub,2013-01-18 12:37:00,
2013-01-18 06:42:00,25.7,22.1,30.51,NE,45,1.0,1.0,86,0.00,,,0.00,meteohub,2013-01-18 12:42:00,
2013-01-18 06:47:00,25.7,22.1,30.51,NE,45,0.0,1.0,86,0.00,,,0.00,meteohub,2013-01-18 12:47:00,
2013-01-18 06:52:00,25.5,21.9,30.51,NE,45,0.0,1.0,86,0.00,,,0.00,meteohub,2013-01-18 12:52:00,
2013-01-18 06:57:00,25.5,21.9,30.51,NE,45,0.0,1.0,86,0.00,,,0.00,meteohub,2013-01-18 12:57:00,
2013-01-18 07:02:00,25.5,21.9,30.51,NE,45,0.0,0.0,86,0.00,,,0.00,meteohub,2013-01-18 13:02:00,
2013-01-18 07:07:00,25.5,21.9,30.51,NE,45,0.0,0.0,86,0.00,,,0.00,meteohub,2013-01-18 13:07:00,
2013-01-18 07:12:00,25.5,21.9,30.51,NE,45,0.0,0.0,86,0.00,,,0.00,meteohub,2013-01-18 13:12:00,
2013-01-18 07:17:00,25.5,21.9,30.51,NE,45,0.0,0.0,86,0.00,,,0.00,meteohub,2013-01-18 13:17:00,
2013-01-18 07:22:00,25.3,21.7,30.51,NE,45,0.0,0.0,86,0.00,,,0.00,meteohub,2013-01-18 13:22:00,
2013-01-18 07:27:00,25.2,21.6,30.51,NE,45,0.0,0.0,86,0.00,,,0.00,meteohub,2013-01-18 13:27:00,
2013-01-18 07:32:00,25.2,21.6,30.51,NE,45,0.0,0.0,86,0.00,,,0.00,meteohub,2013-01-18 13:32:00,
2013-01-18 07:37:00,25.2,21.6,30.51,NE,45,0.0,0.0,86,0.00,,,0.00,meteohub,2013-01-18 13:37:00,
2013-01-18 07:42:00,25.2,21.6,30.51,NE,45,0.0,0.0,86,0.00,,,0.00,meteohub,2013-01-18 13:42:00,
2013-01-18 07:47:00,25.2,21.6,30.51,NE,45,0.0,0.0,86,0.00,,,0.00,meteohub,2013-01-18 13:47:00,
2013-01-18 07:52:00,25.2,21.6,30.51,NE,45,0.0,0.0,86,0.00,,,0.00,meteohub,2013-01-18 13:52:00,
2013-01-18 07:57:00,25.3,21.7,30.52,NE,45,0.0,0.0,86,0.00,,,0.00,meteohub,2013-01-18 13:57:00,
2013-01-18 08:02:00,25.7,22.5,30.51,NE,45,0.0,0.0,87,0.00,,,0.00,meteohub,2013-01-18 14:02:00,
2013-01-18 08:07:00,26.1,22.6,30.51,NE,45,0.0,0.0,87,0.00,,,0.00,meteohub,2013-01-18 14:07:00,
2013-01-18 08:12:00,27.0,23.4,30.52,NE,45,0.0,0.0,86,0.00,,,0.00,meteohub,2013-01-18 14:12:00,
2013-01-18 08:17:00,27.9,24.4,30.52,NE,45,0.0,0.0,87,0.00,,,0.00,meteohub,2013-01-18 14:17:00,
2013-01-18 08:22:00,28.4,26.1,30.52,NE,45,0.0,0.0,91,0.00,,,0.00,meteohub,2013-01-18 14:22:00,
2013-01-18 08:27:00,29.1,26.8,30.52,NE,45,0.0,0.0,91,0.00,,,0.00,meteohub,2013-01-18 14:27:00,
2013-01-18 08:32:00,31.5,29.5,30.52,NE,45,0.0,0.0,92,0.00,,,0.00,meteohub,2013-01-18 14:32:00,
2013-01-18 08:37:00,35.4,33.1,30.52,NE,45,0.0,0.0,91,0.00,,,0.00,meteohub,2013-01-18 14:37:00,
2013-01-18 08:42:00,39.0,36.9,30.51,NE,45,0.0,0.0,92,0.00,,,0.00,meteohub,2013-01-18 14:42:00,
2013-01-18 08:47:00,43.0,38.8,30.52,NE,45,0.0,0.0,85,0.00,,,0.00,meteohub,2013-01-18 14:47:00,
2013-01-18 08:52:00,44.8,37.9,30.52,NE,45,0.0,0.0,77,0.00,,,0.00,meteohub,2013-01-18 14:52:00,
2013-01-18 08:53:00,46.0,38.5,30.52,NE,45,0.0,0.0,75,0.00,,,0.00,meteohub,2013-01-18 14:53:00,
2013-01-18 08:57:00,48.4,39.4,30.52,NE,45,0.0,0.0,71,0.00,,,0.00,meteohub,2013-01-18 14:57:00,
2013-01-18 09:02:00,51.4,39.7,30.52,West,270,0.0,0.0,64,0.00,,,0.00,meteohub,2013-01-18 15:02:00,
2013-01-18 09:07:00,52.3,38.8,30.52,SE,135,0.0,0.0,60,0.00,,,0.00,meteohub,2013-01-18 15:07:00,
2013-01-18 09:12:00,52.9,38.5,30.52,SE,135,0.0,0.0,58,0.00,,,0.00,meteohub,2013-01-18 15:12:00,
2013-01-18 09:17:00,52.9,36.7,30.52,NW,315,1.0,0.0,54,0.00,,,0.00,meteohub,2013-01-18 15:17:00,
2013-01-18 09:22:00,52.9,36.1,30.52,NW,315,2.0,2.0,53,0.00,,,0.00,meteohub,2013-01-18 15:22:00,
2013-01-18 09:27:00,52.5,36.0,30.52,NW,315,2.0,2.0,53,0.00,,,0.00,meteohub,2013-01-18 15:27:00,
2013-01-18 09:32:00,52.9,36.1,30.52,West,270,2.0,2.0,53,0.00,,,0.00,meteohub,2013-01-18 15:32:00,
2013-01-18 09:37:00,53.4,37.2,30.52,NW,315,2.0,2.0,54,0.00,,,0.00,meteohub,2013-01-18 15:37:00,
2013-01-18 09:42:00,55.0,38.3,30.52,NW,315,2.0,3.0,53,0.00,,,0.00,meteohub,2013-01-18 15:42:00,
2013-01-18 09:47:00,56.3,38.5,30.52,West,270,2.0,3.0,51,0.00,,,0.00,meteohub,2013-01-18 15:47:00,
2013-01-18 09:52:00,58.1,37.9,30.53,NW,315,2.0,3.0,47,0.00,,,0.00,meteohub,2013-01-18 15:52:00,
2013-01-18 09:57:00,58.8,37.6,30.53,NW,315,2.0,2.0,45,0.00,,,0.00,meteohub,2013-01-18 15:57:00,
2013-01-18 10:02:00,59.7,37.8,30.53,NE,45,2.0,3.0,44,0.00,,,0.00,meteohub,2013-01-18 16:02:00,
2013-01-18 10:07:00,59.9,37.9,30.53,East,90,2.0,3.0,44,0.00,,,0.00,meteohub,2013-01-18 16:07:00,
2013-01-18 10:12:00,59.9,37.4,30.53,NE,45,2.0,2.0,43,0.00,,,0.00,meteohub,2013-01-18 16:12:00,
2013-01-18 10:17:00,59.7,37.2,30.53,NW,315,2.0,3.0,43,0.00,,,0.00,meteohub,2013-01-18 16:17:00,
2013-01-18 10:22:00,59.7,37.2,30.53,NW,315,2.0,3.0,43,0.00,,,0.00,meteohub,2013-01-18 16:22:00,
2013-01-18 10:27:00,61.5,35.1,30.53,SE,135,2.0,3.0,37,0.00,,,0.00,meteohub,2013-01-18 16:27:00,
2013-01-18 10:32:00,60.3,35.8,30.53,East,90,3.0,4.0,40,0.00,,,0.00,meteohub,2013-01-18 16:32:00,
2013-01-18 10:37:00,59.0,36.5,30.53,NE,45,5.0,8.0,43,0.00,,,0.00,meteohub,2013-01-18 16:37:00,
2013-01-18 10:42:00,59.0,36.5,30.53,NE,45,2.0,8.0,43,0.00,,,0.00,meteohub,2013-01-18 16:42:00,
2013-01-18 10:47:00,60.6,36.1,30.53,East,90,4.0,8.0,40,0.00,,,0.00,meteohub,2013-01-18 16:47:00,
2013-01-18 10:52:00,59.5,35.8,30.53,South,180,4.0,6.0,41,0.00,,,0.00,meteohub,2013-01-18 16:52:00,
2013-01-18 10:57:00,59.4,36.9,30.53,North,0,2.0,6.0,43,0.00,,,0.00,meteohub,2013-01-18 16:57:00,
2013-01-18 11:02:00,61.3,36.1,30.52,East,90,4.0,6.0,39,0.00,,,0.00,meteohub,2013-01-18 17:02:00,
2013-01-18 11:07:00,61.5,35.6,30.52,SE,135,5.0,5.0,38,0.00,,,0.00,meteohub,2013-01-18 17:07:00,
2013-01-18 11:12:00,60.8,35.1,30.52,East,90,2.0,5.0,38,0.00,,,0.00,meteohub,2013-01-18 17:12:00,
2013-01-18 11:18:00,61.0,36.5,30.51,North,0,1.0,7.0,40,0.00,,,0.00,meteohub,2013-01-18 17:18:00,
2013-01-18 11:23:00,63.9,36.3,30.51,SE,135,3.0,7.0,36,0.00,,,0.00,meteohub,2013-01-18 17:23:00,
2013-01-18 11:28:00,63.3,34.5,30.51,East,90,8.0,8.0,34,0.00,,,0.00,meteohub,2013-01-18 17:28:00,
2013-01-18 11:33:00,61.5,34.3,30.50,NE,45,5.0,10.0,36,0.00,,,0.00,meteohub,2013-01-18 17:33:00,
2013-01-18 11:38:00,61.7,35.2,30.49,SE,135,8.0,10.0,37,0.00,,,0.00,meteohub,2013-01-18 17:38:00,
2013-01-18 11:43:00,62.2,34.9,30.49,ENE,68,8.0,10.0,36,0.00,,,0.00,meteohub,2013-01-18 17:43:00,
2013-01-18 11:48:00,62.2,34.9,30.48,NW,315,5.0,10.0,36,0.00,,,0.00,meteohub,2013-01-18 17:48:00,
2013-01-18 11:53:00,61.7,34.5,30.48,NE,45,7.0,8.0,36,0.00,,,0.00,meteohub,2013-01-18 17:53:00,
2013-01-18 11:58:00,61.9,35.2,30.48,ENE,68,7.0,9.0,37,0.00,,,0.00,meteohub,2013-01-18 17:58:00,
2013-01-18 12:03:00,62.2,34.9,30.47,East,90,9.0,9.0,36,0.00,,,0.00,meteohub,2013-01-18 18:03:00,
2013-01-18 12:08:00,62.6,34.5,30.46,East,90,7.0,9.0,35,0.00,,,0.00,meteohub,2013-01-18 18:08:00,
2013-01-18 12:13:00,63.9,34.2,30.46,East,90,5.0,9.0,33,0.00,,,0.00,meteohub,2013-01-18 18:13:00,
2013-01-18 12:18:00,63.7,33.3,30.45,East,90,8.0,9.0,32,0.00,,,0.00,meteohub,2013-01-18 18:18:00,
2013-01-18 12:23:00,63.3,32.9,30.45,NE,45,5.0,11.0,32,0.00,,,0.00,meteohub,2013-01-18 18:23:00,
2013-01-18 12:28:00,63.9,33.4,30.44,SE,135,8.0,11.0,32,0.00,,,0.00,meteohub,2013-01-18 18:28:00,
2013-01-18 12:33:00,65.7,37.2,30.44,ENE,68,4.0,11.0,35,0.00,,,0.00,meteohub,2013-01-18 18:33:00,
2013-01-18 12:38:00,65.7,33.4,30.43,East,90,5.0,8.0,30,0.00,,,0.00,meteohub,2013-01-18 18:38:00,
2013-01-18 12:44:00,65.8,33.6,30.43,ENE,68,6.0,10.0,30,0.00,,,0.00,meteohub,2013-01-18 18:44:00,
2013-01-18 12:49:00,67.3,34.0,30.42,East,90,3.0,10.0,29,0.00,,,0.00,meteohub,2013-01-18 18:49:00,
2013-01-18 12:54:00,67.1,34.7,30.42,East,90,6.0,10.0,30,0.00,,,0.00,meteohub,2013-01-18 18:54:00,
2013-01-18 12:59:00,67.1,33.8,30.41,NE,45,7.0,8.0,29,0.00,,,0.00,meteohub,2013-01-18 18:59:00,
2013-01-18 13:04:00,66.7,32.5,30.40,South,180,5.0,8.0,28,0.00,,,0.00,meteohub,2013-01-18 19:04:00,
2013-01-18 13:09:00,66.9,32.7,30.40,SW,225,8.0,8.0,28,0.00,,,0.00,meteohub,2013-01-18 19:09:00,
2013-01-18 13:14:00,66.6,33.3,30.40,East,90,8.0,9.0,29,0.00,,,0.00,meteohub,2013-01-18 19:14:00,
2013-01-18 13:19:00,66.7,33.4,30.40,East,90,6.0,13.0,29,0.00,,,0.00,meteohub,2013-01-18 19:19:00,
2013-01-18 13:24:00,67.1,33.8,30.40,East,90,8.0,13.0,29,0.00,,,0.00,meteohub,2013-01-18 19:24:00,
2013-01-18 13:29:00,66.7,30.7,30.39,SE,135,6.0,13.0,26,0.00,,,0.00,meteohub,2013-01-18 19:29:00,
2013-01-18 13:34:00,66.7,30.7,30.39,NE,45,5.0,10.0,26,0.00,,,0.00,meteohub,2013-01-18 19:34:00,
2013-01-18 13:40:00,68.2,31.1,30.38,East,90,4.0,10.0,25,0.00,,,0.00,meteohub,2013-01-18 19:40:00,
2013-01-18 13:45:00,67.3,30.2,30.38,North,0,4.0,10.0,25,0.00,,,0.00,meteohub,2013-01-18 19:45:00,
2013-01-18 13:50:00,68.7,29.5,30.38,SE,135,4.0,10.0,23,0.00,,,0.00,meteohub,2013-01-18 19:50:00,
2013-01-18 13:55:00,68.2,28.9,30.38,East,90,7.0,10.0,23,0.00,,,0.00,meteohub,2013-01-18 19:55:00,
2013-01-18 14:00:00,68.0,29.8,30.37,NNW,338,8.0,10.0,24,0.00,,,0.00,meteohub,2013-01-18 20:00:00,
2013-01-18 14:05:00,69.4,30.0,30.37,East,90,6.0,8.0,23,0.00,,,0.00,meteohub,2013-01-18 20:05:00,
2013-01-18 14:10:00,69.4,30.0,30.36,NE,45,6.0,8.0,23,0.00,,,0.00,meteohub,2013-01-18 20:10:00,
2013-01-18 14:15:00,69.4,28.9,30.36,East,90,7.0,8.0,22,0.00,,,0.00,meteohub,2013-01-18 20:15:00,
2013-01-18 14:20:00,69.4,28.9,30.36,East,90,7.0,8.0,22,0.00,,,0.00,meteohub,2013-01-18 20:20:00,
2013-01-18 14:25:00,71.2,30.4,30.36,East,90,5.0,8.0,22,0.00,,,0.00,meteohub,2013-01-18 20:25:00,
2013-01-18 14:30:00,70.7,30.0,30.35,East,90,6.0,10.0,22,0.00,,,0.00,meteohub,2013-01-18 20:30:00,
2013-01-18 14:35:00,70.5,28.8,30.35,NE,45,2.0,10.0,21,0.00,,,0.00,meteohub,2013-01-18 20:35:00,
2013-01-18 14:40:00,70.7,30.0,30.35,NE,45,7.0,10.0,22,0.00,,,0.00,meteohub,2013-01-18 20:40:00,
2013-01-18 14:45:00,70.0,29.3,30.35,NE,45,7.0,8.0,22,0.00,,,0.00,meteohub,2013-01-18 20:45:00,
2013-01-18 14:50:00,71.2,30.4,30.35,East,90,4.0,8.0,22,0.00,,,0.00,meteohub,2013-01-18 20:50:00,
2013-01-18 14:55:00,70.7,30.0,30.35,NW,315,4.0,10.0,22,0.00,,,0.00,meteohub,2013-01-18 20:55:00,
2013-01-18 15:00:00,71.4,29.5,30.35,NE,45,7.0,10.0,21,0.00,,,0.00,meteohub,2013-01-18 21:00:00,
2013-01-18 15:05:00,70.5,29.8,30.35,North,0,5.0,10.0,22,0.00,,,0.00,meteohub,2013-01-18 21:05:00,
2013-01-18 15:11:00,72.1,30.0,30.35,SE,135,6.0,7.0,21,0.00,,,0.00,meteohub,2013-01-18 21:11:00,
2013-01-18 15:16:00,70.2,29.5,30.35,East,90,6.0,10.0,22,0.00,,,0.00,meteohub,2013-01-18 21:16:00,
2013-01-18 15:21:00,71.6,29.7,30.34,South,180,4.0,10.0,21,0.00,,,0.00,meteohub,2013-01-18 21:21:00,
2013-01-18 15:26:00,71.1,30.2,30.35,NE,45,4.0,10.0,22,0.00,,,0.00,meteohub,2013-01-18 21:26:00,
2013-01-18 15:31:00,70.9,30.2,30.34,East,90,4.0,8.0,22,0.00,,,0.00,meteohub,2013-01-18 21:31:00,
2013-01-18 15:36:00,72.0,29.8,30.34,East,90,8.0,8.0,21,0.00,,,0.00,meteohub,2013-01-18 21:36:00,
2013-01-18 15:41:00,70.2,29.5,30.34,NE,45,7.0,8.0,22,0.00,,,0.00,meteohub,2013-01-18 21:41:00,
2013-01-18 15:46:00,70.3,29.7,30.34,NE,45,2.0,8.0,22,0.00,,,0.00,meteohub,2013-01-18 21:46:00,
2013-01-18 15:51:00,71.2,30.4,30.33,East,90,7.0,8.0,22,0.00,,,0.00,meteohub,2013-01-18 21:51:00,
2013-01-18 15:56:00,70.2,28.4,30.33,ENE,68,8.0,8.0,21,0.00,,,0.00,meteohub,2013-01-18 21:56:00,
2013-01-18 16:01:00,70.3,29.7,30.34,East,90,4.0,8.0,22,0.00,,,0.00,meteohub,2013-01-18 22:01:00,
2013-01-18 16:06:00,71.1,30.2,30.34,East,90,3.0,8.0,22,0.00,,,0.00,meteohub,2013-01-18 22:06:00,
2013-01-18 16:11:00,71.2,30.4,30.34,East,90,6.0,8.0,22,0.00,,,0.00,meteohub,2013-01-18 22:11:00,
2013-01-18 16:17:00,70.9,30.2,30.34,SE,135,2.0,7.0,22,0.00,,,0.00,meteohub,2013-01-18 22:17:00,
2013-01-18 16:22:00,70.9,30.2,30.34,SE,135,2.0,7.0,22,0.00,,,0.00,meteohub,2013-01-18 22:22:00,
2013-01-18 16:27:00,71.8,29.7,30.34,East,90,2.0,7.0,21,0.00,,,0.00,meteohub,2013-01-18 22:27:00,
2013-01-18 16:32:00,70.9,30.2,30.34,NE,45,4.0,7.0,22,0.00,,,0.00,meteohub,2013-01-18 22:32:00,
2013-01-18 16:37:00,69.6,30.2,30.34,ESE,113,4.0,7.0,23,0.00,,,0.00,meteohub,2013-01-18 22:37:00,
2013-01-18 16:42:00,69.8,29.3,30.33,East,90,3.0,7.0,22,0.00,,,0.00,meteohub,2013-01-18 22:42:00,
2013-01-18 16:47:00,69.6,30.2,30.34,ESE,113,4.0,7.0,23,0.00,,,0.00,meteohub,2013-01-18 22:47:00,
2013-01-18 16:52:00,69.1,30.7,30.34,East,90,4.0,6.0,24,0.00,,,0.00,meteohub,2013-01-18 22:52:00,
2013-01-18 16:57:00,68.5,30.4,30.34,SE,135,4.0,8.0,24,0.00,,,0.00,meteohub,2013-01-18 22:57:00,
2013-01-18 17:02:00,67.6,30.6,30.34,ENE,68,5.0,8.0,25,0.00,,,0.00,meteohub,2013-01-18 23:02:00,
2013-01-18 17:07:00,66.0,32.0,30.34,East,90,6.0,7.0,28,0.00,,,0.00,meteohub,2013-01-18 23:07:00,
2013-01-18 17:12:00,65.1,31.3,30.34,East,90,3.0,8.0,28,0.00,,,0.00,meteohub,2013-01-18 23:12:00,
2013-01-18 17:17:00,64.6,31.6,30.34,East,90,4.0,8.0,29,0.00,,,0.00,meteohub,2013-01-18 23:17:00,
2013-01-18 17:22:00,63.7,31.6,30.34,East,90,4.0,8.0,30,0.00,,,0.00,meteohub,2013-01-18 23:22:00,
2013-01-18 17:27:00,62.8,31.6,30.34,ENE,68,4.0,5.0,31,0.00,,,0.00,meteohub,2013-01-18 23:27:00,
2013-01-18 17:32:00,62.2,32.0,30.35,NE,45,4.0,6.0,32,0.00,,,0.00,meteohub,2013-01-18 23:32:00,
2013-01-18 17:37:00,61.5,32.2,30.34,NE,45,2.0,6.0,33,0.00,,,0.00,meteohub,2013-01-18 23:37:00,
2013-01-18 17:42:00,60.6,32.2,30.34,NE,45,2.0,4.0,34,0.00,,,0.00,meteohub,2013-01-18 23:42:00,
2013-01-18 17:48:00,59.9,32.2,30.35,East,90,2.0,4.0,35,0.00,,,0.00,meteohub,2013-01-18 23:48:00,
2013-01-18 17:53:00,59.2,32.2,30.35,NE,45,2.0,3.0,36,0.00,,,0.00,meteohub,2013-01-18 23:53:00,
2013-01-18 17:58:00,58.3,32.7,30.35,ENE,68,2.0,3.0,38,0.00,,,0.00,meteohub,2013-01-18 23:58:00,
2013-01-18 18:03:00,57.6,32.7,30.35,NE,45,2.0,3.0,39,0.00,,,0.00,meteohub,2013-01-19 00:03:00,
2013-01-18 18:08:00,56.5,33.6,30.35,NE,45,2.0,2.0,42,0.00,,,0.00,meteohub,2013-01-19 00:08:00,
2013-01-18 18:13:00,55.8,33.6,30.35,East,90,2.0,2.0,43,0.00,,,0.00,meteohub,2013-01-19 00:13:00,
2013-01-18 18:18:00,54.5,33.1,30.35,NE,45,2.0,2.0,44,0.00,,,0.00,meteohub,2013-01-19 00:18:00,
2013-01-18 18:23:00,54.1,33.3,30.35,NE,45,2.0,2.0,45,0.00,,,0.00,meteohub,2013-01-19 00:23:00,
2013-01-18 18:28:00,54.1,33.8,30.35,NE,45,3.0,3.0,46,0.00,,,0.00,meteohub,2013-01-19 00:28:00,
2013-01-18 18:33:00,54.0,33.6,30.35,NE,45,2.0,3.0,46,0.00,,,0.00,meteohub,2013-01-19 00:33:00,
2013-01-18 18:38:00,53.6,33.8,30.35,East,90,3.0,3.0,47,0.00,,,0.00,meteohub,2013-01-19 00:38:00,
2013-01-18 18:43:00,53.4,34.2,30.35,NE,45,2.0,3.0,48,0.00,,,0.00,meteohub,2013-01-19 00:43:00,
2013-01-18 18:48:00,53.1,34.3,30.35,NE,45,2.0,3.0,49,0.00,,,0.00,meteohub,2013-01-19 00:48:00,
2013-01-18 18:53:00,52.9,34.2,30.35,East,90,2.0,3.0,49,0.00,,,0.00,meteohub,2013-01-19 00:53:00,
2013-01-18 18:58:00,52.9,34.2,30.35,NE,45,2.0,3.0,49,0.00,,,0.00,meteohub,2013-01-19 00:58:00,
2013-01-18 19:03:00,52.9,33.8,30.35,NE,45,3.0,3.0,48,0.00,,,0.00,meteohub,2013-01-19 01:03:00,
2013-01-18 19:08:00,52.9,33.8,30.35,East,90,3.0,3.0,48,0.00,,,0.00,meteohub,2013-01-19 01:08:00,
2013-01-18 19:13:00,53.1,33.8,30.35,NE,45,3.0,4.0,48,0.00,,,0.00,meteohub,2013-01-19 01:13:00,
2013-01-18 19:19:00,53.2,33.4,30.35,NE,45,3.0,4.0,47,0.00,,,0.00,meteohub,2013-01-19 01:19:00,
2013-01-18 19:23:00,53.2,33.4,30.36,NE,45,3.0,4.0,47,0.00,,,0.00,meteohub,2013-01-19 01:23:00,
2013-01-18 19:29:00,53.4,33.6,30.35,East,90,4.0,4.0,47,0.00,,,0.00,meteohub,2013-01-19 01:29:00,
2013-01-18 19:34:00,53.6,32.7,30.35,East,90,4.0,4.0,45,0.00,,,0.00,meteohub,2013-01-19 01:34:00,
2013-01-18 19:39:00,54.0,33.1,30.35,East,90,4.0,5.0,45,0.00,,,0.00,meteohub,2013-01-19 01:39:00,
2013-01-18 19:44:00,54.3,32.9,30.35,NE,45,4.0,5.0,44,0.00,,,0.00,meteohub,2013-01-19 01:44:00,
2013-01-18 19:49:00,54.3,32.9,30.35,East,90,4.0,5.0,44,0.00,,,0.00,meteohub,2013-01-19 01:49:00,
2013-01-18 19:54:00,54.5,33.1,30.35,NE,45,4.0,5.0,44,0.00,,,0.00,meteohub,2013-01-19 01:54:00,
2013-01-18 19:59:00,54.1,32.7,30.35,NE,45,4.0,6.0,44,0.00,,,0.00,meteohub,2013-01-19 01:59:00,
2013-01-18 20:04:00,54.1,32.7,30.35,NE,45,4.0,6.0,44,0.00,,,0.00,meteohub,2013-01-19 02:04:00,
2013-01-18 20:09:00,53.4,33.1,30.35,East,90,4.0,5.0,46,0.00,,,0.00,meteohub,2013-01-19 02:09:00,
2013-01-18 20:14:00,53.4,33.6,30.35,East,90,5.0,5.0,47,0.00,,,0.00,meteohub,2013-01-19 02:14:00,
2013-01-18 20:19:00,53.4,33.6,30.36,NE,45,4.0,5.0,47,0.00,,,0.00,meteohub,2013-01-19 02:19:00,
2013-01-18 20:24:00,53.2,33.4,30.35,NE,45,4.0,5.0,47,0.00,,,0.00,meteohub,2013-01-19 02:24:00,
2013-01-18 20:29:00,53.2,33.4,30.35,NE,45,5.0,5.0,47,0.00,,,0.00,meteohub,2013-01-19 02:29:00,
2013-01-18 20:34:00,53.2,33.4,30.35,NE,45,4.0,5.0,47,0.00,,,0.00,meteohub,2013-01-19 02:34:00,
2013-01-18 20:40:00,53.2,33.4,30.36,East,90,4.0,5.0,47,0.00,,,0.00,meteohub,2013-01-19 02:40:00,
2013-01-18 20:45:00,53.4,33.6,30.35,East,90,6.0,6.0,47,0.00,,,0.00,meteohub,2013-01-19 02:45:00,
2013-01-18 20:50:00,53.8,32.9,30.35,NE,45,4.0,6.0,45,0.00,,,0.00,meteohub,2013-01-19 02:50:00,
2013-01-18 20:55:00,53.8,32.9,30.35,NE,45,3.0,6.0,45,0.00,,,0.00,meteohub,2013-01-19 02:55:00,
2013-01-18 21:00:00,54.0,33.1,30.35,ENE,68,4.0,7.0,45,0.00,,,0.00,meteohub,2013-01-19 03:00:00,
2013-01-18 21:05:00,54.0,33.1,30.35,SE,135,3.0,7.0,45,0.00,,,0.00,meteohub,2013-01-19 03:05:00,
2013-01-18 21:10:00,53.8,32.9,30.35,East,90,4.0,7.0,45,0.00,,,0.00,meteohub,2013-01-19 03:10:00,
2013-01-18 21:15:00,53.6,32.7,30.35,East,90,2.0,4.0,45,0.00,,,0.00,meteohub,2013-01-19 03:15:00,
2013-01-18 21:20:00,52.9,33.8,30.36,NW,315,2.0,4.0,48,0.00,,,0.00,meteohub,2013-01-19 03:20:00,
2013-01-18 21:25:00,50.7,33.3,30.36,NW,315,3.0,4.0,51,0.00,,,0.00,meteohub,2013-01-19 03:25:00,
2013-01-18 21:30:00,48.4,32.5,30.35,West,270,2.0,3.0,54,0.00,,,0.00,meteohub,2013-01-19 03:30:00,
2013-01-18 21:35:00,46.9,32.0,30.35,West,270,1.0,3.0,56,0.00,,,0.00,meteohub,2013-01-19 03:35:00,
2013-01-18 21:40:00,45.9,31.1,30.35,South,180,2.0,3.0,56,0.00,,,0.00,meteohub,2013-01-19 03:40:00,
2013-01-18 21:45:00,45.0,31.1,30.35,NW,315,1.0,2.0,58,0.00,,,0.00,meteohub,2013-01-19 03:45:00,
2013-01-18 21:51:00,44.2,31.3,30.36,NW,315,1.0,2.0,60,0.00,,,0.00,meteohub,2013-01-19 03:51:00,
2013-01-18 21:56:00,43.7,31.5,30.36,NW,315,1.0,2.0,62,0.00,,,0.00,meteohub,2013-01-19 03:56:00,
2013-01-18 22:01:00,43.2,31.1,30.36,NW,315,0.0,2.0,62,0.00,,,0.00,meteohub,2013-01-19 04:01:00,
2013-01-18 22:06:00,43.2,31.1,30.36,NW,315,0.0,2.0,62,0.00,,,0.00,meteohub,2013-01-19 04:06:00,
2013-01-18 22:11:00,42.1,31.1,30.35,South,180,1.0,2.0,65,0.00,,,0.00,meteohub,2013-01-19 04:11:00,
2013-01-18 22:16:00,41.5,31.1,30.36,South,180,0.0,1.0,66,0.00,,,0.00,meteohub,2013-01-19 04:16:00,
2013-01-18 22:21:00,41.2,30.7,30.35,South,180,0.0,1.0,66,0.00,,,0.00,meteohub,2013-01-19 04:21:00,
2013-01-18 22:26:00,40.8,30.7,30.35,NW,315,0.0,1.0,67,0.00,,,0.00,meteohub,2013-01-19 04:26:00,
2013-01-18 22:31:00,40.3,30.6,30.35,NE,45,0.0,1.0,68,0.00,,,0.00,meteohub,2013-01-19 04:31:00,
2013-01-18 22:36:00,39.9,30.6,30.35,West,270,1.0,1.0,69,0.00,,,0.00,meteohub,2013-01-19 04:36:00,
2013-01-18 22:42:00,39.4,30.4,30.35,NE,45,1.0,1.0,70,0.00,,,0.00,meteohub,2013-01-19 04:42:00,
2013-01-18 22:47:00,39.4,30.4,30.35,NE,45,0.0,2.0,70,0.00,,,0.00,meteohub,2013-01-19 04:47:00,
2013-01-18 22:52:00,39.2,30.2,30.35,NE,45,0.0,2.0,70,0.00,,,0.00,meteohub,2013-01-19 04:52:00,
2013-01-18 22:57:00,38.7,30.0,30.35,NE,45,0.0,1.0,71,0.00,,,0.00,meteohub,2013-01-19 04:57:00,
2013-01-18 23:01:00,38.5,30.6,30.35,SW,225,1.0,2.0,73,0.00,,,0.00,meteohub,2013-01-19 05:01:00,
2013-01-18 23:02:00,38.5,30.6,30.35,SW,225,1.0,2.0,73,0.00,,,0.00,meteohub,2013-01-19 05:02:00,
2013-01-18 23:07:00,38.5,30.6,30.34,NW,315,0.0,2.0,73,0.00,,,0.00,meteohub,2013-01-19 05:07:00,
2013-01-18 23:12:00,38.7,31.1,30.34,South,180,1.0,2.0,74,0.00,,,0.00,meteohub,2013-01-19 05:12:00,
2013-01-18 23:17:00,38.5,30.9,30.34,South,180,0.0,2.0,74,0.00,,,0.00,meteohub,2013-01-19 05:17:00,
2013-01-18 23:22:00,37.9,30.4,30.34,SE,135,0.0,2.0,74,0.00,,,0.00,meteohub,2013-01-19 05:22:00,
2013-01-18 23:27:00,38.1,30.9,30.34,East,90,3.0,3.0,75,0.00,,,0.00,meteohub,2013-01-19 05:27:00,
2013-01-18 23:32:00,40.8,33.8,30.34,East,90,2.0,3.0,76,0.00,,,0.00,meteohub,2013-01-19 05:32:00,
2013-01-18 23:37:00,42.8,34.7,30.33,East,90,3.0,4.0,73,0.00,,,0.00,meteohub,2013-01-19 05:37:00,
2013-01-18 23:43:00,45.3,35.8,30.33,NE,45,4.0,4.0,69,0.00,,,0.00,meteohub,2013-01-19 05:43:00,
2013-01-18 23:48:00,46.8,36.0,30.33,NE,45,3.0,4.0,66,0.00,,,0.00,meteohub,2013-01-19 05:48:00,
2013-01-18 23:53:00,47.5,36.3,30.33,East,90,4.0,4.0,65,0.00,,,0.00,meteohub,2013-01-19 05:53:00,
2013-01-18 23:58:00,47.8,36.7,30.33,East,90,5.0,5.0,65,0.00,,,0.00,meteohub,2013-01-19 05:58:00,